Regional Weather Roundup
Issued by NWS Spokane, WA

Home | Current Version | Previous Version | Text Only | Print | Product List | Glossary On
Versions: 1 2 3 4 5 6 7 8 9 10 11 12 13 14 15 16 17 18 19 20 21 22 23 24 25 26 27 28 29 30 31 32 33 34 35 36 37 38 39 40 41 42 43 44 45 46 47 48 49 50
649
NZUS01 KOTX 011225
RWROTX

Eastern Washington/Northern Idaho Roundup
National Weather Service, Spokane WA
500 AM PDT SAT OCT 01 2016

Note: "fair" indicated few or no clouds below 12,000 feet with no
significant weather and/or obstructions to visibility.

...Northeast Washington and Northern Idaho Panhandle...

CITY           SKY/WX    TMP DP  RH WIND       PRES   REMARKS
Spokane Intl   CLOUDY    51  49  92 S12       29.93R
Spokane Downto LGT RAIN  54  53  97 CALM      29.93S
Coeur d Alene  CLOUDY    56  48  74 CALM      29.94F
Deer Park      LGT RAIN  52  50  93 E5        29.93F
Sandpoint      CLOUDY    54  52  94 CALM      29.94S
Bonners Ferry  RAIN      52  50  93 CALM      29.93R

...Southeast Washington and southern Idaho Panhandle...

CITY           SKY/WX    TMP DP  RH WIND       PRES   REMARKS
Walla Walla    CLOUDY    56  38  50 S12       29.98S
Pullman/Moscow LGT RAIN  49  42  77 W9        29.98R
Lewiston       CLOUDY    57  41  55 W13       29.93F
Lowell           N/A     54  52  93 CALM      29.95S
Grangeville    CLOUDY    50  43  76 E6        29.97R

...Columbia Basin...

CITY           SKY/WX    TMP DP  RH WIND       PRES   REMARKS
Ephrata        CLOUDY    49  40  71 SW6       29.87S
Moses Lake     CLEAR     53  36  52 SW8       29.89S
Pasco          PTCLDY    56  39  53 SW7       29.96R
Richland       MOSUNNY   57  40  53 S7        29.95S
Hermiston      PTCLDY    54  41  61 SW12      29.97S
Pendleton      CLEAR     49  37  63 SW8       29.98S

...East Slopes Cascades...

CITY           SKY/WX    TMP DP  RH WIND       PRES   REMARKS
The Dalles     CLEAR     49  39  68 E6        29.98S
Yakima         CLEAR     43  32  65 W5        29.94S
Ellensburg     CLEAR     43  35  73 NW6       29.92S
Stampede Pass  CLEAR     38  34  85 CALM      29.94S
Wenatchee      CLEAR     53  32  44 NW8       29.88S
Omak           PTCLDY    52  40  63 SE5       29.85R
Sunnyside      SUNNY     40  36  87 CALM      29.95S

...Southern British Columbia...

CITY           SKY/WX    TMP DP  RH WIND       PRES   REMARKS
Penticton      MOCLDY    50  41  71 CALM      29.84R
Cranbrook      MOCLDY    48  46  93 S5        29.87F
Osoyoos          N/A     52  45  76 E1          N/A
Creston          N/A     54  52  94 NW3         N/A

...Western Montana...

CITY           SKY/WX    TMP DP  RH WIND       PRES   REMARKS
Kalispell      CLOUDY    52  50  93 CALM      29.82F
Libby            N/A     50  48  93 SW5       29.88R
Missoula       LGT RAIN  56  43  61 NW7       29.91R

...Neighboring Cities...

CITY           SKY/WX    TMP DP  RH WIND       PRES   REMARKS
Seattle        CLOUDY    53  46  77 E7        29.94F
Portland       MOCLDY    53  49  86 SE7       29.99S
Boise          MOCLDY    65  48  54 SE3       29.91R
Great Falls    CLOUDY    62  42  47 S10       29.90F
Calgary        LGT RAIN  46  46 100 N7        29.98F FOG



USA.gov is the U.S. government's official web portal to all federal, state and local government web resources and services.